Location: Eboldshausen
(51.7766°N, 10.0050°E)
Time: 02:19:16
(UTC+00:00)

Cosmos 489 Rocket - Pass Details

Date: 15 November 2025
Orbit: 952 x 982 km, 74.0° (Epoch: 13 December)

Event Time Altitude Azimuth Distance (km) Brightness Sun altitude
Rises 17:47:06 0° 334° (NNW) 3,673 7.8 -21.1°
Reaches altitude 10° 17:49:40 10° 336° (NNW) 2,718 7.1 -21.5°
Maximum altitude 17:55:59 81° 64° (ENE) 980 4.3 -22.4°
Enters shadow 18:00:30 20° 151° (SSE) 2,068 5.9 -23.1°
